Regional Weather Roundup
Issued by NWS

Home | Current Version | Previous Version | Graphics & Text | Print | Product List | Glossary On
Versions: 1 2 3 4 5 6 7 8 9 10 11 12 13 14 15 16 17 18 19 20 21 22 23 24 25 26 27 28 29 30 31 32 33 34 35 36 37 38 39 40 41 42 43 44 45 46 47 48 49 50
000
ASUS43 KTOP 041159
RWRKS

WEATHER ROUNDUP FOR KANSAS
NATIONAL WEATHER SERVICE GOODLAND KS
600 AM CST WED MAR 04 2015

NOTE:  "FAIR" INDICATES FEW OR NO CLOUDS BELOW 12,000 FEET WITH NO
SIGNIFICANT WEATHER AND/OR OBSTRUCTIONS TO VISIBILITY.

KSZ001>006-013>018-027>032-041>047-041300-
NORTHWEST KANSAS

CITY           SKY/WX    TMP DP  RH WIND       PRES   REMARKS
GOODLAND       LGT SNOW  15  13  91 N9        30.13R FOG
6HR MIN TEMP:  15; 6HR MAX TEMP:  21; 6HR PCP:  0.02;

HAYS           CLOUDY    18   7  62 NE13      30.21R WCI   4
HILL CITY      CLOUDY    17  12  80 N7        30.23R
6HR MIN TEMP:  17; 6HR MAX TEMP:  22; 6HR PCP: TRACE;

RUSSELL        LGT SNOW  18  14  84 N13       30.20R FOG     WCI   5
6HR MIN TEMP:  18; 6HR MAX TEMP:  25; 6HR PCP: TRACE;

$$

KSZ061>065-074>080-084>089-041300-
SOUTHWEST KANSAS

CITY           SKY/WX    TMP DP  RH WIND       PRES   REMARKS
DODGE CITY     CLOUDY    19  11  70 NE18      30.14R WCI   4
6HR MIN TEMP:  19; 6HR MAX TEMP:  27; 6HR PCP: TRACE;

ELKHART          N/A     21  12  68 NE16        N/A  WCI   7
GARDEN CITY    CLOUDY    18  12  77 NE15      30.14R WCI   4
6HR MIN TEMP:  18; 6HR MAX TEMP:  26;

GREAT BEND     CLOUDY    19   9  63 NE15G22   30.19R WCI   5
LIBERAL        CLOUDY    21  14  73 NE15G21   30.08F WCI   8
$$

KSZ066>073-081>083-090>101-041300-
SOUTHEAST KANSAS

CITY           SKY/WX    TMP DP  RH WIND       PRES   REMARKS
CHANUTE        LGT SNOW  21  16  81 N20G30    30.16R WCI   6
6HR MIN TEMP:  21; 6HR MAX TEMP:  33; 6HR PCP: TRACE;

COFFEYVILLE    CLOUDY    27  18  69 N23G30    30.13R WCI  12
6HR MIN TEMP:  27; 6HR MAX TEMP:  39;

HUTCHINSON     LGT SNOW  20  14  77 N9        30.19R
6HR MIN TEMP:  20; 6HR MAX TEMP:  30; 6HR PCP: TRACE;

MEDICINE LODGE   N/A     21  15  78 N21G30    30.14R WCI   5
NEWTON         CLOUDY    18  10  73 N21       30.16S WCI   1
PARSONS        FLURRIES  25  18  74 N18G30    30.14R WCI  11
6HR MIN TEMP:  25; 6HR MAX TEMP:  36; 6HR PCP: TRACE;

WICHITA INTL   FLURRIES  21  15  78 NE17G24   30.16R WCI   7
6HR MIN TEMP:  21; 6HR MAX TEMP:  32; 6HR PCP:  0.06;

WICHITA JABRA  FLURRIES  19  14  81 N16       30.16R WCI   4
6HR MIN TEMP:  19; 6HR MAX TEMP:  30; 6HR PCP: TRACE;

WICHITA MCCONL CLOUDY    19  16  86 NE20      30.16R WCI   4
WINFIELD       CLOUDY    23  16  74 N23       30.16R WCI   7
6HR MIN TEMP:  23; 6HR MAX TEMP:  35; 6HR PCP: TRACE;

$$

KSZ007>012-019>026-033>040-048>060-102>105-041300-
NORTHEAST KANSAS

CITY           SKY/WX    TMP DP  RH WIND       PRES   REMARKS
CONCORDIA      CLOUDY    19  14  81 N10       30.22R WCI   7
6HR MIN TEMP:  19; 6HR MAX TEMP:  22;

EMPORIA        FLURRIES  20   8  60 N15G25    30.19R WCI   6
6HR MIN TEMP:  19; 6HR MAX TEMP:  30; 6HR PCP: TRACE;

LAWRENCE       MOCLDY    20   6  55 N13       30.22R WCI   7
6HR MIN TEMP:  20; 6HR MAX TEMP:  28;

MANHATTAN      CLOUDY    21  11  65 NE9       30.24R
6HR MIN TEMP:  21; 6HR MAX TEMP:  25;

OLATHE IND     CLOUDY    20   6  55 N18       30.20R WCI   5
6HR MIN TEMP:  19; 6HR MAX TEMP:  29;

OLATHE EXE     CLOUDY    20   4  50 NE17      30.18R WCI   5
6HR MIN TEMP:  20; 6HR MAX TEMP:  30;

SALINA         CLOUDY    22   9  57 N15       30.23R WCI   9
6HR MIN TEMP:  22; 6HR MAX TEMP:  28;

TOPEKA BILLARD CLOUDY    21   7  54 N20       30.24R WCI   6
6HR MIN TEMP:  21; 6HR MAX TEMP:  28;

TOPEKA FORBES  CLOUDY    21   6  52 N12G22    30.21R WCI   9
6HR MIN TEMP:  21; 6HR MAX TEMP:  29;

$$



USA.gov is the U.S. government's official web portal to all federal, state and local government web resources and services.